9A7DI-13 Weather Reports


Display with metric or nautical units.
time (UTC)temp
F
wind
direction
speed
MPH
gust
MPH
rain 1hr
in
rain 24hr
in
rain mn
in
humidity
%
barometer
mb
20260505010710 49 0.0 0.0 0.00 0.00 0.00 64 1023.3
20260505005710 50 0.0 0.0 0.00 0.00 0.00 65 1023.3
20260505004710 49 0.0 0.0 0.00 0.00 0.00 66 1023.5
20260505003710 51 0.0 0.0 0.00 0.00 0.00 63 1023.5
20260505002710 51 0.0 0.0 0.00 0.00 0.00 64 1023.4
20260505001710 50 0.0 0.0 0.00 0.00 0.00 64 1023.5
20260505000710 50 0.0 0.0 0.00 0.00 0.00 62 1023.5
20260504235710 50 0.0 0.0 0.00 0.00 0.00 65 1023.6
20260504234710 51 0.0 0.0 0.00 0.00 0.00 64 1023.7
20260504233710 51 0.0 0.0 0.00 0.00 0.00 64 1023.7
20260504232710 52 0.0 0.0 0.00 0.00 0.00 61 1023.8
20260504231710 51 0.0 0.0 0.00 0.00 0.00 63 1023.9
20260504230710 51 0.0 0.0 0.00 0.00 0.00 61 1023.9
20260504225710 52 0.0 0.0 0.00 0.00 0.00 61 1023.9
20260504224710 51 0.0 0.0 0.00 0.00 0.00 62 1024.0
20260504223710 51 0.0 0.0 0.00 0.00 0.00 63 1024.0
20260504222710 52 0.0 0.0 0.00 0.00 0.00 60 1024.2
20260504221710 53 0.0 0.0 0.00 0.00 0.00 60 1024.3
20260504220710 53 0.0 0.0 0.00 0.00 0.00 57 1024.2
20260504215710 54 0.0 0.0 0.00 0.00 0.00 59 1023.9
20260504214710 54 0.0 0.0 0.00 0.00 0.00 59 1023.8
20260504213710 54 0.0 0.0 0.00 0.00 0.00 58 1023.9
20260504212710 54 0.0 0.0 0.00 0.00 0.00 59 1023.8
20260504211710 56 0.0 0.0 0.00 0.00 0.00 55 1023.8
20260504210710 56 0.0 0.0 0.00 0.00 0.00 53 1023.9
20260504205710 56 0.0 0.0 0.00 0.00 0.00 52 1023.9
20260504204710 57 0.0 0.0 0.00 0.00 0.00 52 1023.9
20260504203710 57 0.0 0.0 0.00 0.00 0.00 53 1023.8
20260504202710 58 0.0 0.0 0.00 0.00 0.00 53 1023.8
20260504201710 57 0.0 0.0 0.00 0.00 0.00 56 1023.7
20260504200710 57 0.0 0.0 0.00 0.00 0.00 54 1023.8
20260504195710 58 0.0 0.0 0.00 0.00 0.00 53 1023.8
20260504194711 59 0.0 0.0 0.00 0.00 0.00 51 1023.9
20260504193710 61 0.0 0.0 0.00 0.00 0.00 47 1023.8
20260504192710 61 0.0 0.0 0.00 0.00 0.00 47 1023.7
20260504191710 61 0.0 0.0 0.00 0.00 0.00 45 1023.7
20260504190711 63 0.0 0.0 0.00 0.00 0.00 43 1023.6
20260504185710 64 0.0 0.0 0.00 0.00 0.00 42 1023.5
20260504184710 65 0.0 0.0 0.00 0.00 0.00 39 1023.4
20260504183710 66 0.0 0.0 0.00 0.00 0.00 38 1023.3
20260504182710 67 0.0 0.0 0.00 0.00 0.00 37 1023.2
20260504181711 67 0.0 0.0 0.00 0.00 0.00 36 1023.1
20260504180710 67 0.0 0.0 0.00 0.00 0.00 35 1023.1
20260504175710 69 0.0 0.0 0.00 0.00 0.00 33 1023.0
20260504174711 71 0.0 0.0 0.00 0.00 0.00 31 1023.0
20260504173711 72 0.0 0.0 0.00 0.00 0.00 30 1022.9
20260504172711 73 0.0 0.0 0.00 0.00 0.00 28 1022.8
20260504171711 74 0.0 0.0 0.00 0.00 0.00 29 1022.7
20260504170711 74 0.0 0.0 0.00 0.00 0.00 28 1022.7
20260504150711 78 0.0 0.0 0.00 0.00 0.00 21 1023.1
20260504140711 79 0.0 0.0 0.00 0.00 0.00 19 1023.5
20260504110711 76 0.0 0.0 0.00 0.00 0.00 23 1025.4
20260504081711 71 0.0 0.0 0.00 0.00 0.00 28 1026.9
20260504080711 70 0.0 0.0 0.00 0.00 0.00 29 1027.0
20260504050712 55 0.0 0.0 0.00 0.00 0.00 54 1027.2
20260504045711 53 0.0 0.0 0.00 0.00 0.00 56 1027.1
20260504044711 52 0.0 0.0 0.00 0.00 0.00 59 1027.2
20260504043712 49 0.0 0.0 0.00 0.00 0.00 63 1027.2
20260504042711 46 0.0 0.0 0.00 0.00 0.00 68 1027.3
20260504041712 44 0.0 0.0 0.00 0.00 0.00 69 1027.2
20260504040712 43 0.0 0.0 0.00 0.00 0.00 70 1027.2
20260504035712 43 0.0 0.0 0.00 0.00 0.00 71 1027.2
20260504034712 42 0.0 0.0 0.00 0.00 0.00 71 1027.2
20260504033712 43 0.0 0.0 0.00 0.00 0.00 71 1027.1
20260504032712 43 0.0 0.0 0.00 0.00 0.00 71 1027.0
20260504031712 43 0.0 0.0 0.00 0.00 0.00 71 1027.0
20260504030712 43 0.0 0.0 0.00 0.00 0.00 71 1027.0
20260504025712 43 0.0 0.0 0.00 0.00 0.00 72 1027.0
20260504024712 43 0.0 0.0 0.00 0.00 0.00 71 1027.1
20260504023712 43 0.0 0.0 0.00 0.00 0.00 73 1027.0
20260504022712 44 0.0 0.0 0.00 0.00 0.00 70 1027.1
20260504021712 45 0.0 0.0 0.00 0.00 0.00 68 1027.0
20260504020712 45 0.0 0.0 0.00 0.00 0.00 67 1026.9
20260504015712 46 0.0 0.0 0.00 0.00 0.00 66 1026.8
20260504014712 46 0.0 0.0 0.00 0.00 0.00 64 1026.8
20260504013712 47 0.0 0.0 0.00 0.00 0.00 63 1026.8
20260504012712 47 0.0 0.0 0.00 0.00 0.00 62 1026.8
20260504011712 48 0.0 0.0 0.00 0.00 0.00 63 1026.9